FW0960 Weather Reports


Display with metric or nautical units.
time (UTC)temp
F
wind
direction
speed
MPH
gust
MPH
rain 1hr
in
rain 24hr
in
rain mn
in
humidity
%
barometer
mb
20260505022931 62 347 0.0 1.0 0.00 0.00 0.00 80 1013.0
20260505022433 62 347 0.0 1.0 0.00 0.00 0.00 80 1012.9
20260505021437 62 347 0.0 1.0 0.00 0.00 0.00 79 1013.1
20260505020930 62 347 0.0 1.0 0.00 0.00 0.00 79 1013.1
20260505020442 62 347 0.0 2.0 0.00 0.00 0.00 79 1013.2
20260505015433 62 346 0.0 2.0 0.00 0.00 0.00 79 1013.1
20260505014930 62 347 0.0 2.0 0.00 0.00 0.00 79 1013.0
20260505013932 62 347 0.0 2.0 0.00 0.00 0.00 78 1013.2
20260505013431 62 347 0.0 1.0 0.00 0.00 0.00 78 1013.1
20260505012933 62 348 0.0 2.0 0.00 0.00 0.00 78 1013.1
20260505012432 62 348 0.0 2.0 0.00 0.00 0.00 78 1013.1
20260505012002 63 348 0.0 1.0 0.00 0.00 0.00 77 1013.1
20260505010937 63 348 0.0 2.0 0.00 0.00 0.00 76 1013.1
20260505010432 63 348 0.0 1.0 0.00 0.00 0.00 76 1013.1
20260505005942 63 348 0.0 1.0 0.00 0.00 0.00 76 1013.1
20260505005431 63 348 0.0 1.0 0.00 0.00 0.00 76 1013.1
20260505004433 63 348 0.0 1.0 0.00 0.00 0.00 75 1013.1
20260505003934 63 348 0.0 1.0 0.00 0.00 0.00 75 1013.0
20260505002931 64 348 0.0 1.0 0.00 0.00 0.00 74 1013.0
20260505002430 64 348 0.0 1.0 0.00 0.00 0.00 74 1013.1
20260505001430 64 348 0.0 1.0 0.00 0.00 0.00 73 1013.0
20260505000939 65 348 0.0 1.0 0.00 0.00 0.00 72 1013.0
20260504235934 65 340 0.0 1.0 0.00 0.00 0.00 71 1013.0
20260504235432 65 340 0.0 2.0 0.00 0.00 0.00 71 1012.9
20260504234938 65 340 0.0 2.0 0.00 0.00 0.00 70 1012.8
20260504233934 66 340 0.0 2.0 0.00 0.00 0.00 69 1012.6
20260504232931 67 340 0.0 2.0 0.00 0.00 0.00 68 1012.6
20260504232432 67 340 0.0 2.0 0.00 0.00 0.00 67 1012.6
20260504231931 67 340 0.0 2.0 0.00 0.00 0.00 67 1012.5
20260504231432 67 340 1.0 2.0 0.00 0.00 0.00 66 1012.5
20260504230931 67 339 0.0 2.0 0.00 0.00 0.00 65 1012.5
20260504230432 68 339 0.0 2.0 0.00 0.00 0.00 65 1012.5
20260504225929 68 339 0.0 2.0 0.00 0.00 0.00 64 1012.5
20260504225437 68 338 0.0 2.0 0.00 0.00 0.00 63 1012.5
20260504224934 68 336 1.0 2.0 0.00 0.00 0.00 63 1012.5
20260504224433 69 336 0.0 3.0 0.00 0.00 0.00 62 1012.3
20260504223930 69 336 1.0 3.0 0.00 0.00 0.00 62 1012.4
20260504223435 69 336 1.0 2.0 0.00 0.00 0.00 61 1012.3
20260504222934 70 331 1.0 2.0 0.00 0.00 0.00 60 1012.3
20260504222431 70 329 1.0 2.0 0.00 0.00 0.00 57 1012.3
20260504221424 71 355 1.0 2.0 0.00 0.00 0.00 58 1012.2
20260504220917 73 351 1.0 2.0 0.00 0.00 0.00 55 1012.2
20260504220418 74 351 1.0 3.0 0.00 0.00 0.00 51 1012.2
20260504215915 75 49 1.0 4.0 0.00 0.00 0.00 44 1012.2
20260504215422 75 161 0.0 4.0 0.00 0.00 0.00 42 1012.2
20260504214914 74 173 0.0 2.0 0.00 0.00 0.00 40 1012.3
20260504213918 74 117 1.0 2.0 0.00 0.00 0.00 41 1012.2
20260504213414 74 154 1.0 4.0 0.00 0.00 0.00 42 1012.3
20260504212912 74 208 1.0 4.0 0.00 0.00 0.00 39 1012.3
20260504212415 74 141 1.0 2.0 0.00 0.00 0.00 40 1012.4
20260504211913 74 108 1.0 2.0 0.00 0.00 0.00 38 1012.3
20260504211413 74 142 1.0 2.0 0.00 0.00 0.00 38 1012.2
20260504210913 74 157 1.0 4.0 0.00 0.00 0.00 39 1012.4
20260504210410 74 152 1.0 4.0 0.00 0.00 0.00 40 1012.2
20260504205407 74 169 1.0 2.0 0.00 0.00 0.00 40 1012.3
20260504204905 75 121 1.0 4.0 0.00 0.00 0.00 41 1012.4
20260504204408 75 42 1.0 4.0 0.00 0.00 0.00 39 1012.5
20260504203902 75 167 1.0 4.0 0.00 0.00 0.00 43 1012.6
20260504202904 75 92 1.0 3.0 0.00 0.00 0.00 41 1012.4
20260504201901 74 102 0.0 4.0 0.00 0.00 0.00 41 1012.6
20260504201405 75 86 0.0 2.0 0.00 0.00 0.00 40 1012.5
20260504200906 74 88 0.0 2.0 0.00 0.00 0.00 39 1012.7
20260504195901 74 105 1.0 5.0 0.00 0.00 0.00 40 1012.6
20260504195402 74 167 1.0 5.0 0.00 0.00 0.00 41 1012.7
20260504194906 74 169 1.0 5.0 0.00 0.00 0.00 41 1012.8
20260504194408 74 107 1.0 4.0 0.00 0.00 0.00 43 1012.8
20260504193903 74 145 1.0 3.0 0.00 0.00 0.00 40 1012.7
20260504193406 74 121 1.0 3.0 0.00 0.00 0.00 40 1012.8
20260504192905 74 88 1.0 5.0 0.00 0.00 0.00 39 1012.9
20260504192403 74 82 1.0 5.0 0.00 0.00 0.00 40 1012.9
20260504191904 74 144 1.0 3.0 0.00 0.00 0.00 40 1013.0
20260504191402 74 123 1.0 4.0 0.00 0.00 0.00 40 1012.9
20260504190404 73 128 1.0 4.0 0.00 0.00 0.00 37 1013.1
20260504185902 74 140 1.0 3.0 0.00 0.00 0.00 40 1013.1
20260504185402 73 168 1.0 5.0 0.00 0.00 0.00 43 1013.3
20260504184358 73 128 1.0 5.0 0.00 0.00 0.00 39 1013.3
20260504183857 73 173 0.0 3.0 0.00 0.00 0.00 42 1013.2
20260504183358 73 153 0.0 4.0 0.00 0.00 0.00 42 1013.3
20260504182405 72 109 1.0 2.0 0.00 0.00 0.00 40 1013.5
20260504181902 72 155 1.0 2.0 0.00 0.00 0.00 44 1013.6
20260504181358 72 214 1.0 6.0 0.00 0.00 0.00 42 1013.6
20260504175855 72 129 0.0 3.0 0.00 0.00 0.00 39 1013.7
20260504175359 72 151 1.0 6.0 0.00 0.00 0.00 39 1013.9
20260504174902 71 166 1.0 6.0 0.00 0.00 0.00 42 1013.9
20260504174400 71 178 0.0 3.0 0.00 0.00 0.00 40 1014.0
20260504173900 71 115 1.0 3.0 0.00 0.00 0.00 39 1014.0
20260504173355 71 163 1.0 4.0 0.00 0.00 0.00 40 1014.2
20260504172852 71 96 1.0 5.0 0.00 0.00 0.00 43 1014.2
20260504172352 71 180 1.0 5.0 0.00 0.00 0.00 42 1014.2
20260504171859 71 169 1.0 5.0 0.00 0.00 0.00 46 1014.3
20260504170855 71 159 1.0 4.0 0.00 0.00 0.00 43 1014.5
20260504170354 71 178 1.0 4.0 0.00 0.00 0.00 42 1014.4
20260504160347 69 138 1.0 3.0 0.00 0.00 0.00 46 1014.8
20260504150834 67 355 0.0 2.0 0.00 0.00 0.00 53 1015.3
20260504141325 63 182 0.0 1.0 0.00 0.00 0.00 63 1015.6
20260504140320 63 135 0.0 2.0 0.00 0.00 0.00 62 1016.0
20260504130809 60 144 0.0 1.0 0.00 0.00 0.00 69 1016.5
20260504130307 59 155 0.0 1.0 0.00 0.00 0.00 69 1016.4
20260504120301 54 140 0.0 1.0 0.00 0.00 0.00 79 1016.9
20260504100236 52 140 0.0 0.0 0.00 0.00 0.00 82 1017.2
20260504081706 51 144 0.0 2.0 0.00 0.00 0.00 80 1017.5
20260504081206 51 140 0.0 2.0 0.00 0.00 0.00 80 1017.5
20260504080705 51 166 0.0 1.0 0.00 0.00 0.00 80 1017.5
20260504080207 51 171 0.0 1.0 0.00 0.00 0.00 80 1017.6
20260504070154 50 181 0.0 4.0 0.00 0.00 0.00 74 1017.6
20260504060147 49 165 0.0 1.0 0.00 0.00 0.00 69 1017.4
20260504050646 49 163 0.0 1.0 0.00 0.00 0.00 69 1017.5
20260504050140 48 163 0.0 1.0 0.00 0.00 0.00 68 1017.4
20260504045640 48 163 0.0 0.0 0.00 0.00 0.00 68 1017.5
20260504045136 48 163 0.0 0.0 0.00 0.00 0.00 68 1017.3
20260504044637 48 163 0.0 0.0 0.00 0.00 0.00 68 1017.2
20260504044133 48 163 0.0 0.0 0.00 0.00 0.00 68 1017.3
20260504043633 48 163 0.0 0.0 0.00 0.00 0.00 68 1017.2
20260504043131 48 163 0.0 0.0 0.00 0.00 0.00 68 1017.2
20260504042133 48 163 0.0 0.0 0.00 0.00 0.00 68 1017.0
20260504041634 48 163 0.0 0.0 0.00 0.00 0.00 68 1017.0
20260504041136 48 163 0.0 0.0 0.00 0.00 0.00 68 1016.9
20260504040632 48 163 0.0 0.0 0.00 0.00 0.00 68 1016.8
20260504040130 47 163 0.0 0.0 0.00 0.00 0.00 68 1016.8
20260504035628 47 163 0.0 0.0 0.00 0.00 0.00 69 1016.7
20260504035119 47 163 0.0 0.0 0.00 0.00 0.00 69 1016.7
20260504034621 48 163 0.0 0.0 0.00 0.00 0.00 70 1016.7
20260504034125 48 163 0.0 0.0 0.00 0.00 0.00 69 1016.7
20260504033117 48 163 0.0 0.0 0.00 0.00 0.00 68 1016.6
20260504032617 48 163 0.0 0.0 0.00 0.00 0.00 69 1016.8
20260504032110 48 163 0.0 0.0 0.00 0.00 0.00 70 1016.7
20260504031609 48 163 0.0 0.0 0.00 0.00 0.00 72 1016.7
20260504031107 48 163 0.0 0.0 0.00 0.00 0.00 71 1016.7
20260504030610 48 163 0.0 0.0 0.00 0.00 0.00 69 1016.7
20260504030134 48 163 0.0 0.0 0.00 0.00 0.00 69 1016.7
20260504025110 49 163 0.0 0.0 0.00 0.00 0.00 68 1016.7
20260504024605 49 163 0.0 0.0 0.00 0.00 0.00 68 1016.8
20260504024101 49 163 0.0 0.0 0.00 0.00 0.00 69 1016.8